Location: Winnipauk Village
(41.1295°N, 73.4171°W)
Time: 05:18:18
(UTC+00:00)

X-37B - Pass Details

Date: 09 August 2021
Orbit: 381 x 393 km, 45.0° (Epoch: 29 August)

Event Time Altitude Azimuth Distance (km) Brightness Sun altitude
Exits shadow 06:50:49 14° 61° (ENE) 1,183 3.7 -27.5°
Drops below altitude 10° 06:51:23 10° 65° (ENE) 1,398 4.1 -27.5°
Sets 06:53:30 0° 72° (ENE) 2,251 5.2 -27.3°
